Orbital Elements at Epoch 2459200.5 (2020-Dec-17.0) TDB
Reference: JPL 23 (heliocentric ecliptic J2000)
Element | Value | Uncertainty (1-sigma) | Units |
e | .1690458135793852 | 2.8404e-08 | |
a | 2.229764488607491 | 6.6079e-09 | au |
q | 1.852832136540416 | 6.217e-08 | au |
i | 3.523089097311856 | 4.4993e-06 | deg |
node | 203.9437300907513 | 5.2072e-05 | deg |
peri | 102.6426324533026 | 5.3949e-05 | deg |
M | 185.4858701366877 | 1.4774e-05 | deg |
tp | 2459790.042357988920 (2022-Jul-29.54235799) | 5.1097e-05 | TDB |
period | 1216.149368777439 3.33 | 5.4061e-06 1.48e-08 | d yr |
n | .2960162700753591 | 1.3159e-09 | deg/d |
Q | 2.606696840674566 | 7.725e-09 | au |
|
| | Orbit Determination Parameters
Additional Information
|